GW4439 Weather Reports


Display with metric or nautical units.
time (UTC)temp
F
wind
direction
speed
MPH
gust
MPH
rain 1hr
in
rain 24hr
in
rain mn
in
humidity
%
barometer
mb
20260906064735 73 259 0.0 0.0 0.00 0.00 0.00 99 1011.5
20260906064231 72 256 0.0 0.0 0.00 0.00 0.00 99 1011.3
20260906063726 72 256 0.0 0.0 0.00 0.00 0.00 99 1011.6
20260906063221 73 251 0.0 0.0 0.00 0.00 0.00 99 1011.7
20260906062716 72 259 0.0 0.0 0.00 0.00 0.00 99 1011.8
20260906062215 72 260 0.0 0.0 0.00 0.00 0.00 99 1012.0
20260906061712 73 259 0.0 0.0 0.00 0.00 0.00 99 1011.8
20260906061208 73 259 0.0 0.0 0.00 0.00 0.00 99 1011.9
20260906060703 73 260 0.0 0.0 0.00 0.00 0.00 99 1012.0
20260906060200 73 259 0.0 0.0 0.00 0.00 0.00 99 1012.2
20260906055655 73 260 0.0 0.0 0.00 0.00 0.00 99 1012.2
20260906055150 73 238 0.0 0.0 0.00 0.00 0.00 99 1012.2
20260906054646 73 241 0.0 0.0 0.00 0.00 0.00 99 1012.5
20260906054140 73 276 0.0 0.0 0.00 0.00 0.00 99 1012.5
20260906053637 73 255 0.0 0.0 0.00 0.00 0.00 99 1012.6
20260906053131 73 255 0.0 0.0 0.00 0.00 0.00 99 1012.9
20260906052627 73 255 0.0 0.0 0.00 0.00 0.00 99 1012.9
20260906052124 73 234 0.0 0.0 0.00 0.00 0.00 99 1013.0
20260906051620 73 237 0.0 0.0 0.00 0.00 0.00 99 1012.8
20260906051114 73 281 0.0 0.0 0.00 0.00 0.00 99 1013.0
20260906050610 73 267 0.0 0.0 0.00 0.00 0.00 99 1012.9
20260906050105 73 267 0.0 0.0 0.00 0.00 0.00 99 1012.9
20260906045603 73 267 0.0 0.0 0.00 0.00 0.00 99 1012.9
20260906045059 73 268 0.0 0.0 0.00 0.00 0.00 99 1012.8
20260906044554 74 243 0.0 0.0 0.00 0.00 0.00 98 1012.9
20260906044049 74 261 0.0 0.0 0.00 0.00 0.00 99 1013.0
20260906043545 74 260 0.0 0.0 0.00 0.00 0.00 98 1012.9
20260906043041 74 278 0.0 0.0 0.00 0.00 0.00 98 1012.9
20260906042539 74 82 0.0 0.0 0.00 0.00 0.00 99 1013.1
20260906042034 74 257 0.0 0.0 0.00 0.00 0.00 99 1013.1
20260906041531 74 262 0.0 0.0 0.00 0.00 0.00 99 1012.8
20260906041031 74 263 0.0 0.0 0.00 0.00 0.00 99 1013.0
20260906040521 74 263 0.0 0.0 0.00 0.00 0.00 99 1012.8
20260906040016 74 263 0.0 0.0 0.00 0.00 0.00 99 1013.1
20260906035511 74 263 0.0 0.0 0.00 0.00 0.00 99 1013.2
20260906035006 74 263 0.0 0.0 0.00 0.00 0.00 98 1013.0
20260906034501 75 263 0.0 0.0 0.00 0.00 0.00 98 1012.7
20260906033956 75 285 0.0 0.0 0.00 0.00 0.00 98 1012.8
20260906033450 75 269 0.0 0.0 0.00 0.00 0.00 98 1013.2
20260906032946 75 253 0.0 0.0 0.00 0.00 0.00 97 1012.9
20260906032442 75 253 0.0 0.0 0.00 0.00 0.00 97 1012.9
20260906031937 75 244 0.0 0.0 0.00 0.00 0.00 97 1012.8
20260906031432 75 257 0.0 0.0 0.00 0.00 0.00 97 1012.9
20260906030927 75 255 0.0 0.0 0.00 0.00 0.00 97 1012.9
20260906030422 75 247 0.0 0.0 0.00 0.00 0.00 96 1012.9
20260906025916 76 276 1.0 1.0 0.00 0.00 0.00 96 1012.7
20260906025411 76 277 4.0 6.0 0.00 0.00 0.00 95 1012.9
20260906024910 75 173 0.0 0.0 0.00 0.00 0.00 98 1012.9
20260906024409 75 281 0.0 0.0 0.00 0.00 0.00 97 1012.7
20260906023904 75 271 0.0 0.0 0.00 0.00 0.00 97 1012.7
20260906023401 75 232 0.0 0.0 0.00 0.00 0.00 97 1012.7
20260906022901 75 236 0.0 0.0 0.00 0.00 0.00 98 1012.8
20260906022355 75 243 0.0 0.0 0.00 0.00 0.00 98 1012.8
20260906021851 75 267 0.0 0.0 0.00 0.00 0.00 97 1012.7
20260906021350 75 275 0.0 0.0 0.00 0.00 0.00 97 1012.7
20260906020845 75 274 0.0 0.0 0.00 0.00 0.00 97 1012.8
20260906020345 75 274 0.0 0.0 0.00 0.00 0.00 97 1012.8
20260906015839 76 274 0.0 0.0 0.00 0.00 0.00 97 1012.7
20260906015338 76 274 0.0 0.0 0.00 0.00 0.00 96 1012.7
20260906014833 76 274 1.0 1.0 0.00 0.00 0.00 96 1012.9
20260906014328 76 273 0.0 0.0 0.00 0.00 0.00 96 1012.9
20260906013824 76 274 0.0 1.0 0.00 0.00 0.00 96 1012.9
20260906013319 76 3 1.0 1.0 0.00 0.00 0.00 96 1013.0
20260906012815 76 271 0.0 0.0 0.00 0.00 0.00 95 1012.7
20260906012314 77 261 0.0 0.0 0.00 0.00 0.00 95 1012.7
20260906011809 77 247 0.0 0.0 0.00 0.00 0.00 95 1012.7
20260906011304 77 270 0.0 0.0 0.00 0.00 0.00 93 1012.5
20260906010800 78 268 1.0 1.0 0.00 0.00 0.00 92 1012.6
20260906010256 78 153 3.0 4.0 0.00 0.00 0.00 92 1012.1
20260906005751 78 219 0.0 0.0 0.00 0.00 0.00 92 1012.1
20260906005250 77 216 2.0 2.0 0.00 0.00 0.00 92 1012.2
20260906004749 77 266 0.0 0.0 0.00 0.00 0.00 93 1012.0
20260906004244 77 282 1.0 1.0 0.00 0.00 0.00 92 1011.9
20260906003739 78 257 0.0 0.0 0.00 0.00 0.00 90 1011.9
20260906003235 78 216 0.0 0.0 0.00 0.00 0.00 91 1012.0
20260906002734 78 246 0.0 0.0 0.00 0.00 0.00 90 1011.9
20260906002229 78 234 2.0 3.0 0.00 0.00 0.00 90 1011.9
20260906001724 78 270 0.0 0.0 0.00 0.00 0.00 90 1011.9
20260906001219 79 288 0.0 0.0 0.00 0.00 0.00 87 1011.7
20260906000715 80 295 0.0 0.0 0.00 0.00 0.00 86 1011.7
20260906000212 80 235 0.0 0.0 0.00 0.00 0.00 85 1011.8
20260905235709 80 196 0.0 0.0 0.00 0.00 0.00 84 1011.6
20260905235204 80 242 2.0 2.0 0.00 0.00 0.00 83 1011.7
20260905234659 81 252 3.0 3.0 0.00 0.00 0.00 83 1011.8
20260905234155 80 208 2.0 2.0 0.00 0.00 0.00 83 1011.7
20260905233650 80 220 0.0 0.0 0.00 0.00 0.00 85 1011.7
20260905233149 80 270 0.0 0.0 0.00 0.00 0.00 85 1011.7
20260905232644 80 268 0.0 0.0 0.00 0.00 0.00 84 1011.8
20260905232140 80 256 0.0 0.0 0.00 0.00 0.00 83 1011.6
20260905231635 80 264 0.0 0.0 0.00 0.00 0.00 84 1011.8
20260905231132 81 274 0.0 0.0 0.00 0.00 0.00 84 1011.7
20260905230627 81 248 0.0 0.0 0.00 0.00 0.00 81 1011.8
20260905230125 81 207 1.0 2.0 0.00 0.00 0.00 81 1011.8
20260905225624 81 206 0.0 0.0 0.00 0.00 0.00 80 1011.5
20260905225114 80 266 0.0 0.0 0.00 0.00 0.00 83 1011.6
20260905224614 81 279 1.0 2.0 0.00 0.00 0.00 82 1011.6
20260905224113 81 261 0.0 0.0 0.00 0.00 0.00 82 1011.9
20260905223610 80 266 0.0 0.0 0.00 0.00 0.00 82 1011.8
20260905223107 81 283 2.0 2.0 0.00 0.00 0.00 84 1011.9
20260905222606 81 250 1.0 1.0 0.00 0.00 0.00 80 1011.7
20260905222102 82 233 2.0 2.0 0.00 0.00 0.00 80 1011.7
20260905221558 82 188 1.0 2.0 0.00 0.00 0.00 80 1011.9
20260905221054 81 233 0.0 0.0 0.00 0.00 0.00 79 1011.8
20260905220549 81 238 0.0 0.0 0.00 0.00 0.00 80 1011.8
20260905220045 81 246 1.0 2.0 0.00 0.00 0.00 80 1011.7
20260905215544 81 200 3.0 3.0 0.00 0.00 0.00 81 1011.8
20260905215041 81 217 3.0 3.0 0.00 0.00 0.00 81 1011.8
20260905214537 80 259 1.0 1.0 0.00 0.00 0.00 81 1011.8
20260905214037 80 274 4.0 4.0 0.00 0.00 0.00 82 1011.7
20260905213532 80 55 2.0 3.0 0.00 0.00 0.00 83 1011.4
20260905213027 80 279 2.0 2.0 0.00 0.00 0.00 84 1011.5
20260905212522 80 282 4.0 6.0 0.00 0.00 0.00 82 1011.5
20260905212021 80 295 4.0 6.0 0.00 0.00 0.00 83 1011.7
20260905211517 80 308 4.0 6.0 0.00 0.00 0.00 82 1011.7
20260905211013 80 286 4.0 4.0 0.00 0.00 0.00 85 1011.7
20260905210508 80 311 2.0 2.0 0.00 0.00 0.00 86 1011.4
20260905210008 82 266 2.0 2.0 0.00 0.00 0.00 82 1011.8
20260905205502 82 253 2.0 2.0 0.00 0.00 0.00 76 1011.9
20260905205001 84 283 3.0 3.0 0.00 0.00 0.00 73 1012.4
20260905204456 85 266 1.0 1.0 0.00 0.00 0.00 69 1012.0
20260905203956 86 258 3.0 4.0 0.00 0.00 0.00 65 1012.0
20260905203451 87 290 6.0 7.0 0.00 0.00 0.00 63 1012.4
20260905202947 88 296 6.0 8.0 0.00 0.00 0.00 62 1012.1
20260905202442 89 270 4.0 4.0 0.00 0.00 0.00 62 1012.0
20260905201937 89 296 4.0 6.0 0.00 0.00 0.00 61 1011.8
20260905201432 90 344 5.0 6.0 0.00 0.00 0.00 60 1011.6
20260905200927 91 334 4.0 4.0 0.00 0.00 0.00 60 1011.5
20260905200423 93 265 0.0 0.0 0.00 0.00 0.00 56 1011.6
20260905195921 93 71 0.0 0.0 0.00 0.00 0.00 54 1011.2
20260905195416 93 270 0.0 0.0 0.00 0.00 0.00 54 1011.2
20260905194912 93 283 0.0 0.0 0.00 0.00 0.00 55 1011.6
20260905194411 94 356 0.0 1.0 0.00 0.00 0.00 51 1011.5
20260905193906 95 263 0.0 0.0 0.00 0.00 0.00 51 1011.5
20260905193400 96 268 0.0 0.0 0.00 0.00 0.00 50 1011.4
20260905192856 96 1 1.0 1.0 0.00 0.00 0.00 48 1011.2
20260905192351 96 260 0.0 0.0 0.00 0.00 0.00 49 1011.3
20260905191851 96 253 0.0 0.0 0.00 0.00 0.00 51 1011.4
20260905191350 95 187 0.0 0.0 0.00 0.00 0.00 51 1011.5
20260905190849 96 4 1.0 1.0 0.00 0.00 0.00 51 1011.5
20260905190348 96 67 2.0 3.0 0.00 0.00 0.00 50 1011.3
20260905185847 97 107 2.0 3.0 0.00 0.00 0.00 49 1011.4
20260905185342 100 251 0.0 1.0 0.00 0.00 0.00 45 1011.4
20260905184841 99 235 0.0 0.0 0.00 0.00 0.00 43 1011.3
20260905184341 100 278 3.0 3.0 0.00 0.00 0.00 43 1011.3
20260905183839 100 222 1.0 2.0 0.00 0.00 0.00 43 1011.4
20260905183335 98 258 0.0 1.0 0.00 0.00 0.00 44 1011.5
20260905182829 98 227 3.0 3.0 0.00 0.00 0.00 42 1011.6
20260905182323 97 92 1.0 2.0 0.00 0.00 0.00 45 1011.7
20260905181819 96 63 4.0 6.0 0.00 0.00 0.00 46 1011.7
20260905181313 95 48 2.0 2.0 0.00 0.00 0.00 48 1011.9
20260905180812 97 280 3.0 4.0 0.00 0.00 0.00 48 1012.0
20260905180307 97 253 0.0 0.0 0.00 0.00 0.00 47 1012.1
20260905175802 97 265 0.0 0.0 0.00 0.00 0.00 48 1012.1
20260905175257 97 80 4.0 4.0 0.00 0.00 0.00 48 1012.5
20260905174752 96 190 1.0 2.0 0.00 0.00 0.00 47 1012.5
20260905174248 96 34 3.0 4.0 0.00 0.00 0.00 49 1012.7
20260905173743 95 69 6.0 7.0 0.00 0.00 0.00 50 1012.7
20260905173238 96 252 0.0 0.0 0.00 0.00 0.00 51 1012.8
20260905172732 96 281 0.0 1.0 0.00 0.00 0.00 51 1012.9
20260905172227 96 237 2.0 3.0 0.00 0.00 0.00 51 1012.9
20260905171723 95 242 6.0 7.0 0.00 0.00 0.00 52 1012.9
20260905171219 96 224 7.0 9.0 0.00 0.00 0.00 53 1012.7
20260905170715 95 206 1.0 1.0 0.00 0.00 0.00 52 1013.1
20260905170216 94 234 3.0 4.0 0.00 0.00 0.00 54 1013.1
20260905165715 95 231 1.0 3.0 0.00 0.00 0.00 54 1013.3
20260905165211 94 17 2.0 2.0 0.00 0.00 0.00 55 1013.5
20260905164710 94 310 6.0 7.0 0.00 0.00 0.00 55 1013.4
20260905164205 94 317 6.0 7.0 0.00 0.00 0.00 55 1013.6
20260905163701 94 260 2.0 2.0 0.00 0.00 0.00 57 1013.8
20260905163157 94 239 1.0 2.0 0.00 0.00 0.00 56 1013.6
20260905162653 94 258 0.0 0.0 0.00 0.00 0.00 57 1013.9
20260905162152 93 239 4.0 6.0 0.00 0.00 0.00 57 1013.9
20260905161647 93 278 1.0 2.0 0.00 0.00 0.00 57 1013.8
20260905161144 93 261 1.0 1.0 0.00 0.00 0.00 58 1013.9
20260905160639 91 296 1.0 2.0 0.00 0.00 0.00 60 1014.0
20260905160138 92 227 4.0 4.0 0.00 0.00 0.00 60 1013.8
20260905155633 93 245 2.0 2.0 0.00 0.00 0.00 59 1014.0
20260905155131 92 288 4.0 7.0 0.00 0.00 0.00 59 1013.8
20260905154626 92 271 2.0 2.0 0.00 0.00 0.00 60 1013.9
20260905154122 92 281 4.0 4.0 0.00 0.00 0.00 58 1014.1
20260905153617 91 286 5.0 6.0 0.00 0.00 0.00 63 1014.0
20260905153113 91 223 5.0 6.0 0.00 0.00 0.00 63 1014.0
20260905152608 91 249 5.0 7.0 0.00 0.00 0.00 62 1014.3
20260905152102 90 237 3.0 3.0 0.00 0.00 0.00 63 1014.2
20260905151557 89 212 7.0 8.0 0.00 0.00 0.00 65 1014.3
20260905151052 90 228 4.0 7.0 0.00 0.00 0.00 64 1014.2
20260905150548 90 220 2.0 4.0 0.00 0.00 0.00 66 1014.3
20260905150045 89 301 2.0 3.0 0.00 0.00 0.00 65 1014.3
20260905145539 89 243 3.0 3.0 0.00 0.00 0.00 66 1014.2
20260905145038 88 242 2.0 3.0 0.00 0.00 0.00 68 1014.4
20260905144533 87 294 3.0 4.0 0.00 0.00 0.00 70 1014.3
20260905144032 88 257 1.0 2.0 0.00 0.00 0.00 68 1014.6
20260905143531 88 286 2.0 3.0 0.00 0.00 0.00 71 1014.4
20260905143026 87 265 4.0 4.0 0.00 0.00 0.00 71 1014.7
20260905142526 87 247 2.0 2.0 0.00 0.00 0.00 72 1014.5
20260905142021 86 242 3.0 3.0 0.00 0.00 0.00 74 1014.5
20260905141521 86 285 6.0 7.0 0.00 0.00 0.00 72 1014.7
20260905141018 86 300 3.0 3.0 0.00 0.00 0.00 74 1014.7
20260905140512 85 295 3.0 4.0 0.00 0.00 0.00 75 1014.8
20260905140011 85 312 4.0 4.0 0.00 0.00 0.00 74 1014.6
20260905135507 84 255 4.0 6.0 0.00 0.00 0.00 76 1014.7
20260905135002 84 284 5.0 6.0 0.00 0.00 0.00 77 1014.8
20260905134501 84 235 3.0 3.0 0.00 0.00 0.00 77 1014.5
20260905134000 84 240 3.0 4.0 0.00 0.00 0.00 78 1014.6
20260905133456 84 238 2.0 3.0 0.00 0.00 0.00 79 1014.6
20260905132955 83 256 3.0 3.0 0.00 0.00 0.00 80 1014.4
20260905132450 82 248 2.0 2.0 0.00 0.00 0.00 81 1014.7
20260905131945 82 250 4.0 4.0 0.00 0.00 0.00 81 1014.8
20260905131442 81 235 4.0 6.0 0.00 0.00 0.00 83 1014.6
20260905130942 81 237 4.0 6.0 0.00 0.00 0.00 83 1014.6
20260905130435 81 243 3.0 3.0 0.00 0.00 0.00 84 1014.7
20260905125935 81 263 4.0 4.0 0.00 0.00 0.00 84 1014.9
20260905125430 80 222 3.0 3.0 0.00 0.00 0.00 86 1014.8
20260905124925 80 239 0.0 1.0 0.00 0.00 0.00 86 1014.9
20260905124422 80 257 1.0 1.0 0.00 0.00 0.00 85 1014.9
20260905123921 80 244 2.0 2.0 0.00 0.00 0.00 86 1014.7
20260905123418 79 224 2.0 2.0 0.00 0.00 0.00 87 1014.7
20260905122914 79 236 1.0 2.0 0.00 0.00 0.00 88 1014.6
20260905122413 79 251 2.0 2.0 0.00 0.00 0.00 88 1014.5
20260905121908 79 251 0.0 0.0 0.00 0.00 0.00 88 1014.7
20260905121404 78 239 0.0 0.0 0.00 0.00 0.00 89 1014.6
20260905120904 78 230 0.0 0.0 0.00 0.00 0.00 90 1014.6
20260905120403 77 228 1.0 2.0 0.00 0.00 0.00 91 1014.5
20260905115858 77 231 1.0 1.0 0.00 0.00 0.00 91 1014.6
20260905115358 77 247 1.0 1.0 0.00 0.00 0.00 92 1014.6
20260905114852 76 240 1.0 1.0 0.00 0.00 0.00 93 1014.5
20260905114346 76 230 1.0 1.0 0.00 0.00 0.00 93 1014.3
20260905113840 76 241 1.0 2.0 0.00 0.00 0.00 93 1014.2
20260905113336 76 232 1.0 1.0 0.00 0.00 0.00 94 1014.1
20260905112831 75 246 1.0 1.0 0.00 0.00 0.00 95 1014.1
20260905112326 75 235 1.0 2.0 0.00 0.00 0.00 95 1014.1
20260905111821 75 236 2.0 3.0 0.00 0.00 0.00 95 1014.0
20260905111320 75 231 0.0 0.0 0.00 0.00 0.00 95 1014.2
20260905110820 75 245 0.0 0.0 0.00 0.00 0.00 95 1014.1
20260905110313 75 248 0.0 0.0 0.00 0.00 0.00 95 1014.0
20260905105809 75 244 0.0 0.0 0.00 0.00 0.00 95 1013.9
20260905105308 75 232 0.0 0.0 0.00 0.00 0.00 95 1013.9
20260905104802 75 238 0.0 0.0 0.00 0.00 0.00 95 1013.9
20260905104259 75 233 0.0 0.0 0.00 0.00 0.00 95 1013.7
20260905103758 75 253 0.0 0.0 0.00 0.00 0.00 95 1013.7
20260905103254 75 251 0.0 0.0 0.00 0.00 0.00 95 1013.7
20260905102750 75 241 0.0 0.0 0.00 0.00 0.00 95 1013.8
20260905102247 75 245 0.0 0.0 0.00 0.00 0.00 95 1013.7
20260905101746 75 238 0.0 0.0 0.00 0.00 0.00 95 1013.7
20260905101244 75 235 1.0 1.0 0.00 0.00 0.00 94 1013.6
20260905100740 75 236 1.0 1.0 0.00 0.00 0.00 95 1013.8
20260905100236 75 247 0.0 0.0 0.00 0.00 0.00 95 1013.7
20260905095735 75 228 2.0 2.0 0.00 0.00 0.00 94 1013.7
20260905095235 75 245 0.0 0.0 0.00 0.00 0.00 94 1013.5
20260905094730 75 236 1.0 2.0 0.00 0.00 0.00 94 1013.6
20260905094225 75 231 1.0 1.0 0.00 0.00 0.00 94 1013.5
20260905093724 75 226 1.0 1.0 0.00 0.00 0.00 94 1013.5
20260905093220 76 233 0.0 0.0 0.00 0.00 0.00 93 1013.6
20260905092716 76 240 1.0 2.0 0.00 0.00 0.00 93 1013.6
20260905092211 76 228 1.0 1.0 0.00 0.00 0.00 93 1013.7
20260905091710 76 230 3.0 3.0 0.00 0.00 0.00 92 1013.6
20260905091205 76 230 0.0 0.0 0.00 0.00 0.00 92 1013.6
20260905090659 76 233 0.0 0.0 0.00 0.00 0.00 92 1013.6
20260905090155 76 236 0.0 0.0 0.00 0.00 0.00 93 1013.6
20260905085654 75 233 0.0 0.0 0.00 0.00 0.00 93 1013.6
20260905085149 74 249 0.0 0.0 0.00 0.00 0.00 97 1013.7
20260905084648 74 259 0.0 0.0 0.00 0.00 0.00 97 1013.6
20260905084143 74 260 0.0 0.0 0.00 0.00 0.00 96 1013.7
20260905083638 74 260 0.0 0.0 0.00 0.00 0.00 96 1013.8
20260905083135 74 260 0.0 0.0 0.00 0.00 0.00 96 1013.7
20260905082630 74 260 0.0 0.0 0.00 0.00 0.00 96 1013.8
20260905082125 75 260 0.0 0.0 0.00 0.00 0.00 96 1014.0
20260905081620 75 260 0.0 0.0 0.00 0.00 0.00 95 1014.0
20260905081114 75 261 0.0 0.0 0.00 0.00 0.00 94 1013.8
20260905080609 76 247 0.0 0.0 0.00 0.00 0.00 93 1013.9
20260905080108 75 254 0.0 0.0 0.00 0.00 0.00 95 1013.9
20260905075607 75 255 0.0 0.0 0.00 0.00 0.00 94 1014.0
20260905075102 75 250 0.0 0.0 0.00 0.00 0.00 95 1014.0
20260905074601 75 252 0.0 0.0 0.00 0.00 0.00 94 1013.9
20260905074057 75 254 0.0 0.0 0.00 0.00 0.00 95 1013.9
20260905073553 75 255 0.0 0.0 0.00 0.00 0.00 94 1013.8
20260905073048 75 255 0.0 0.0 0.00 0.00 0.00 94 1013.8
20260905072547 76 240 0.0 0.0 0.00 0.00 0.00 92 1013.9
20260905072043 75 263 0.0 0.0 0.00 0.00 0.00 94 1014.0
20260905071540 75 263 0.0 0.0 0.00 0.00 0.00 95 1014.0
20260905071040 75 263 0.0 0.0 0.00 0.00 0.00 95 1014.1
20260905070535 75 263 0.0 0.0 0.00 0.00 0.00 95 1014.0
20260905070031 75 263 0.0 0.0 0.00 0.00 0.00 95 1014.3
20260905065528 75 263 0.0 0.0 0.00 0.00 0.00 94 1014.1
20260905065025 75 263 0.0 0.0 0.00 0.00 0.00 94 1014.3